Voltar ao catálogo

CZ-3C DEB

AtivoGTO
NORAD 39338·DEBRIS·🇨🇳 China

Lançado Oct 31, 2010 de Xichang Satellite Launch Center

Loading…

TLE

ObsoletoSource: Space-Track

Época: Sep 13, 2026, 11:35 UTC

1 39338U 10057C   26256.48331388 -.00000099  00000-0  82768-3 0  9991
2 39338  20.2097 335.6843 7189040  37.6484 355.3333  2.25954619106398

Acompanhe CZ-3C DEB em tempo real com AllMySat

Download on the App Store